This is the latest recevied weather packets stored in our database for station/object IW7DVM-13. If no packets are shown the sender has not sent any weather packets the latest 10 day(s).
| Time | Temp. | Humidity | Pressure | Rain* | Wind** | Luminosity | Snow |
|---|---|---|---|---|---|---|---|
| 1787572503 | 31.67° C | 55% | 1009.8 hPa | 0 mm | - | - | - |
| 1787572203 | 31.67° C | 56% | 1009.9 hPa | 0 mm | - | - | - |
| 1787571903 | 32.22° C | 53% | 1010.1 hPa | 0 mm | - | - | - |
| 1787571603 | 32.22° C | 53% | 1010.1 hPa | 0 mm | - | - | - |
| 1787571303 | 31.67° C | 54% | 1010 hPa | 0 mm | - | - | - |
| 1787571003 | 31.11° C | 54% | 1009.9 hPa | 0 mm | - | - | - |
| 1787570703 | 31.11° C | 53% | 1010 hPa | 0 mm | - | - | - |
| 1787570403 | 31.11° C | 55% | 1010.2 hPa | 0 mm | - | - | - |
| 1787570103 | 31.11° C | 53% | 1010.2 hPa | 0 mm | - | - | - |
| 1787569803 | 31.67° C | 53% | 1010.2 hPa | 0 mm | - | - | - |
| 1787569503 | 31.67° C | 53% | 1010.3 hPa | 0 mm | - | - | - |
| 1787569203 | 32.22° C | 53% | 1010.3 hPa | 0 mm | - | - | - |
| 1787568903 | 31.67° C | 52% | 1010.3 hPa | 0 mm | - | - | - |
| 1787568603 | 31.67° C | 53% | 1010.4 hPa | 0 mm | - | - | - |
| 1787568303 | 31.67° C | 52% | 1010.5 hPa | 0 mm | - | - | - |
| 1787568003 | 31.67° C | 53% | 1010.5 hPa | 0 mm | - | - | - |
| 1787567703 | 31.11° C | 54% | 1010.6 hPa | 0 mm | - | - | - |
| 1787567403 | 31.11° C | 54% | 1010.4 hPa | 0 mm | - | - | - |
| 1787567103 | 31.11° C | 55% | 1010.5 hPa | 0 mm | - | - | - |
| 1787566804 | 31.11° C | 54% | 1010.6 hPa | 0 mm | - | - | - |
| 1787566503 | 31.11° C | 54% | 1010.5 hPa | 0 mm | - | - | - |
| 1787566203 | 31.11° C | 54% | 1010.7 hPa | 0 mm | - | - | - |
| 1787565903 | 31.11° C | 55% | 1010.8 hPa | 0 mm | - | - | - |
| 1787565603 | 31.11° C | 55% | 1010.7 hPa | 0 mm | - | - | - |
| 1787565303 | 30.56° C | 56% | 1010.9 hPa | 0 mm | - | - | - |
* Rain latest hour (hover to see other rain measurements)
** Current wind speed in m/s (hover to see current wind gust speed)